Weather History for Cleveland Burke, OH

Change the Weather History Date:

Wednesday, April 10, 2013

  Actual Average Record
Temperature  
Mean Temperature 42 °F -  
Max Temperature 53 °F 53 °F 82 °F (2011)
Min Temperature 39 °F 39 °F 26 °F (1997)
Degree Days  
Heating Degree Days 22    
Moisture  
Dew Point 41 °F    
Average Humidity 94    
Maximum Humidity 100    
Minimum Humidity 87    
Precipitation  
Precipitation 0.48 in - - ()
Sea Level Pressure  
Sea Level Pressure 29.89 in    
Wind  
Wind Speed 8 mph (NNE)    
Max Wind Speed 22 mph    
Max Gust Speed 31 mph    
Visibility 6 miles    
Events Rain , Thunderstorm    
Averages and records for this station are not official NWS values.
T = Trace of Precipitation, MM = Missing Value Source: NWS Daily Summary

Daily Weather History Graph

Daily Weather History Graph

Search for Another Location

Airport:

Trip Planner

Search our weather history database for the weather conditions in past years. The results will help you decide how hot, cold, wet, or windy it might be!

Date:

Astronomy

Apr. 10, 2013 Rise Set
Actual Time 6:54 AM EDT 8:02 PM EDT
Civil Twilight 6:26 AM EDT 8:30 PM EDT
Nautical Twilight 5:52 AM EDT 9:04 PM EDT
Astronomical Twilight 5:16 AM EDT 9:40 PM EDT
Moon 6:49 AM EDT (4/10) 8:37 PM EDT (4/10)
Length of Visible Light 14h 04m
Length of Day
13h 07m
New Moon, 0% of the Moon is Illuminated
Apr 10
New Moon
Apr 18
First Quarter
Apr 25
Full
May 2
Last Quarter
May 9
New

Hourly Weather History & Observations

Time (EDT) Temp. Windchill Dew Point Humidity Pressure Visibility Wind Dir Wind Speed Gust Speed Precip Events Conditions
12:53 AM 42.1 °F 38.4 °F 39.0 °F 89% 29.92 in 10.0 mi WNW 5.8 mph - N/A   Overcast
1:53 AM 39.9 °F 36.7 °F 39.0 °F 97% 29.94 in 8.0 mi West 4.6 mph - 0.00 in   Overcast
2:53 AM 41.0 °F 39.0 °F 39.0 °F 93% 29.96 in 6.0 mi NNE 3.5 mph - 0.00 in   Overcast
3:53 AM 41.0 °F - 39.9 °F 96% 29.95 in 5.0 mi Calm Calm - 0.00 in   Overcast
4:53 AM 41.0 °F - 39.9 °F 96% 29.92 in 4.0 mi Calm Calm - N/A   Overcast
5:53 AM 42.1 °F - 39.9 °F 92% 29.91 in 7.0 mi Calm Calm - N/A   Mostly Cloudy
6:53 AM 44.1 °F - 42.1 °F 93% 29.90 in 6.0 mi Calm Calm - N/A   Mostly Cloudy
7:53 AM 45.0 °F 43.5 °F 42.1 °F 90% 29.89 in 6.0 mi NNW 3.5 mph - N/A   Mostly Cloudy
8:53 AM 43.0 °F 38.8 °F 39.9 °F 89% 29.89 in 4.0 mi NNE 6.9 mph - N/A   Overcast
9:53 AM 44.1 °F 39.0 °F 42.1 °F 93% 29.88 in 6.0 mi NNE 9.2 mph - N/A   Overcast
10:12 AM 42.8 °F 37.0 °F 39.2 °F 87% 29.89 in 3.0 mi North 10.4 mph 19.6 mph 0.01 in Rain Light Rain
10:32 AM 41.0 °F 33.9 °F 39.2 °F 93% 29.89 in 4.0 mi NE 12.7 mph - 0.01 in   Overcast
10:53 AM 42.1 °F 34.2 °F 41.0 °F 96% 29.91 in 7.0 mi NE 16.1 mph - 0.01 in   Overcast
11:15 AM 44.6 °F 41.4 °F 42.8 °F 93% 29.87 in 7.0 mi ENE 5.8 mph - N/A   Overcast
11:53 AM 43.0 °F 37.2 °F 41.0 °F 93% 29.92 in 5.0 mi North 10.4 mph - 0.02 in   Overcast
12:06 PM 42.8 °F 37.5 °F 41.0 °F 93% 29.90 in 2.0 mi NE 9.2 mph - 0.05 in Rain Rain
12:19 PM 42.8 °F 38.6 °F 41.0 °F 93% 29.89 in 4.0 mi East 6.9 mph - 0.06 in Rain Light Rain
12:39 PM 42.8 °F 41.1 °F 42.8 °F 100% 29.89 in 3.0 mi ENE 3.5 mph - 0.07 in   Overcast
12:53 PM 44.1 °F 40.1 °F 43.0 °F 96% 29.85 in 2.5 mi East 6.9 mph - 0.07 in   Mostly Cloudy
1:03 PM 46.4 °F 44.3 °F 46.4 °F 100% 29.82 in 4.0 mi SE 4.6 mph - 0.00 in Rain Light Rain
2:53 PM 46.0 °F 44.8 °F 44.1 °F 93% 29.83 in 4.0 mi North 3.5 mph - N/A   Overcast
3:03 PM 44.6 °F 37.8 °F 42.8 °F 93% 29.86 in 4.0 mi North 15.0 mph 26.5 mph N/A   Overcast
3:24 PM 42.8 °F 34.8 °F 41.0 °F 93% 29.85 in 4.0 mi NE 17.3 mph 23.0 mph N/A   Overcast
3:33 PM 41.0 °F 33.1 °F 39.2 °F 93% 29.86 in 5.0 mi NNE 15.0 mph - N/A   Overcast
3:53 PM 44.1 °F 38.1 °F 42.1 °F 93% 29.83 in 8.0 mi NE 11.5 mph - N/A   Mostly Cloudy
4:00 PM 46.4 °F 43.5 °F 44.6 °F 93% 29.82 in 7.0 mi NE 5.8 mph - N/A   Mostly Cloudy
4:51 PM 42.8 °F 38.0 °F 41.0 °F 93% 29.90 in 2.5 mi North 8.1 mph 31.1 mph 0.11 in Rain Heavy Rain
4:53 PM 42.1 °F 38.4 °F 39.9 °F 92% 29.90 in 2.0 mi NNE 5.8 mph 27.6 mph 0.13 in Rain Heavy Rain
4:57 PM 42.8 °F 37.5 °F 41.0 °F 93% 29.87 in 3.0 mi SE 9.2 mph 18.4 mph 0.01 in Rain Heavy Rain
5:53 PM 46.0 °F 41.4 °F 45.0 °F 96% 29.84 in 3.0 mi NNW 9.2 mph 19.6 mph 0.04 in Rain Light Rain
6:03 PM 42.8 °F 34.8 °F 42.8 °F 100% 29.86 in 3.0 mi North 17.3 mph 24.2 mph 0.00 in   Mostly Cloudy
6:14 PM 42.8 °F 35.1 °F 41.0 °F 93% 29.87 in 2.5 mi North 16.1 mph - 0.00 in   Mostly Cloudy
6:17 PM 42.8 °F 34.8 °F 41.0 °F 93% 29.87 in 3.0 mi North 17.3 mph - 0.00 in   Mostly Cloudy
6:41 PM 41.0 °F 31.4 °F 39.2 °F 93% 29.89 in 5.0 mi NNE 21.9 mph 29.9 mph 0.00 in   Overcast
6:53 PM 39.9 °F 30.2 °F 39.0 °F 97% 29.92 in 8.0 mi NE 20.7 mph 31.1 mph 0.00 in   Overcast
7:17 PM 39.2 °F 30.2 °F 39.2 °F 100% 29.91 in 5.0 mi NE 17.3 mph 29.9 mph N/A   Overcast
7:53 PM 39.9 °F 33.9 °F 39.9 °F 100% 29.97 in 5.0 mi NE 9.2 mph - 0.03 in Rain , Thunderstorm Thunderstorms and Rain
8:41 PM 41.0 °F 31.6 °F 39.2 °F 93% 29.87 in 4.0 mi ENE 20.7 mph - 0.15 in Rain , Thunderstorm Thunderstorms and Rain
8:53 PM 41.0 °F 34.3 °F 39.9 °F 96% 29.85 in 8.0 mi East 11.5 mph 23.0 mph 0.17 in Rain , Thunderstorm Thunderstorms and Rain
9:04 PM 42.8 °F 37.0 °F 41.0 °F 93% 29.82 in 9.0 mi SSE 10.4 mph 25.3 mph 0.00 in Rain , Thunderstorm Thunderstorms and Rain
9:25 PM 42.8 °F 35.8 °F 42.8 °F 100% 29.88 in 10.0 mi North 13.8 mph - 0.00 in Rain , Thunderstorm Thunderstorms and Rain
9:42 PM 42.8 °F 35.1 °F 39.2 °F 87% 29.91 in 10.0 mi NNE 16.1 mph - 0.01 in   Overcast
9:53 PM 41.0 °F 32.8 °F 39.9 °F 96% 29.92 in 10.0 mi NE 16.1 mph - 0.01 in   Overcast
10:36 PM 42.8 °F 38.6 °F 41.0 °F 93% 29.87 in 10.0 mi NNE 6.9 mph - N/A   Scattered Clouds
10:48 PM 42.8 °F 37.0 °F 41.0 °F 93% 29.88 in 10.0 mi NNE 10.4 mph - N/A   Scattered Clouds
10:53 PM 42.1 °F 36.1 °F 39.9 °F 92% 29.90 in 10.0 mi NNE 10.4 mph - N/A   Mostly Cloudy
11:31 PM 42.8 °F 38.0 °F 39.2 °F 87% 29.92 in 10.0 mi NE 8.1 mph - N/A   Overcast
11:53 PM 42.1 °F 36.1 °F 39.9 °F 92% 29.92 in 9.0 mi NNE 10.4 mph - 0.00 in Rain Light Rain